Change the Weather History Date:

Thursday, July 18, 2013

  Actual Average Record
Temperature  
Mean Temperature 77 °F 72 °F  
Max Temperature 94 °F 89 °F 105 °F (2006)
Min Temperature 60 °F 55 °F 45 °F (2005)
Degree Days  
Heating Degree Days 0 0  
Month to date heating degree days 0 9  
Since 1 June heating degree days 56 119  
Since 1 July heating degree days 0 9  
Cooling Degree Days 12 7  
Month to date cooling degree days 184 107  
Year to date cooling degree days 306 184  
Since 1 June cooling degree days 290 178  
Growing Degree Days 27 (Base 50)    
Moisture  
Dew Point 51 °F    
Average Humidity 45    
Maximum Humidity 69    
Minimum Humidity 20    
Precipitation  
Precipitation T in 0.04 in 0.12 in (2011)
Month to date precipitation 0.20 0.85  
Year to date precipitation 5.39 8.40  
Sea Level Pressure  
Sea Level Pressure 29.94 in    
Wind  
Wind Speed 9 mph (NNW)    
Max Wind Speed 17 mph    
Max Gust Speed 23 mph    
Visibility 10 miles    
Events Rain    
T = Trace of Precipitation, MM = Missing Value Source: NWS Daily Summary

Daily Weather History Graph

Daily Weather History Graph

Search for Another Location

Airport or City:

Trip Planner

Search our weather history database for the weather conditions in past years. The results will help you decide how hot, cold, wet, or windy it might be!

Date:

Astronomy

Jul. 18, 2013 Rise Set
Actual Time 5:39 AM MDT 8:35 PM MDT
Civil Twilight 5:05 AM MDT 9:09 PM MDT
Nautical Twilight 4:23 AM MDT 9:51 PM MDT
Astronomical Twilight 3:33 AM MDT 10:41 PM MDT
Moon 4:34 PM MDT (7/18) 1:33 AM MDT (7/18)
Length of Visible Light 16h 03m
Length of Day
14h 56m
Waxing Gibbous, 78% of the Moon is Illuminated
Jul 18
Waxing Gibbous
Jul 22
Full
Jul 29
Last Quarter
Aug 6
New
Aug 14
First Quarter

Hourly Weather History & Observations

Time (MDT) Temp. Heat Index Dew Point Humidity Pressure Visibility Wind Dir Wind Speed Gust Speed Precip Events Conditions
12:53 AM 71.1 °F - 48.9 °F 45% 29.93 in 10.0 mi ESE 8.1 mph - N/A   Clear
1:53 AM 68.0 °F - 48.9 °F 50% 29.93 in 10.0 mi SE 3.5 mph - N/A   Clear
2:53 AM 66.0 °F - 48.0 °F 52% 29.94 in 10.0 mi WNW 3.5 mph - N/A   Clear
3:53 AM 61.0 °F - 50.0 °F 67% 29.96 in 10.0 mi NNW 3.5 mph - N/A   Clear
4:53 AM 61.0 °F - 48.9 °F 64% 29.96 in 10.0 mi NW 5.8 mph - N/A   Clear
5:53 AM 68.0 °F - 50.0 °F 52% 29.95 in 10.0 mi NW 10.4 mph - N/A   Clear
6:53 AM 70.0 °F - 51.1 °F 51% 29.95 in 10.0 mi WNW 6.9 mph - N/A   Partly Cloudy
7:53 AM 73.0 °F - 52.0 °F 48% 29.96 in 10.0 mi NW 9.2 mph - N/A   Clear
8:53 AM 71.1 °F - 55.9 °F 59% 30.00 in 10.0 mi WNW 11.5 mph - 0.00 in Rain Light Rain
9:53 AM 80.1 °F 80.0 °F 54.0 °F 40% 29.99 in 10.0 mi NW 15.0 mph - 0.00 in   Mostly Cloudy
10:53 AM 81.0 °F 80.4 °F 53.1 °F 38% 29.99 in 10.0 mi NW 12.7 mph - N/A   Overcast
11:53 AM 88.0 °F 85.9 °F 54.0 °F 31% 29.96 in 10.0 mi NW 15.0 mph 21.9 mph N/A   Scattered Clouds
12:53 PM 90.0 °F 88.1 °F 55.9 °F 31% 29.95 in 10.0 mi Variable 6.9 mph 17.3 mph N/A   Clear
1:53 PM 91.9 °F 89.5 °F 54.0 °F 27% 29.93 in 10.0 mi WNW 9.2 mph 17.3 mph N/A   Scattered Clouds
2:53 PM 91.0 °F - 51.1 °F 25% 29.92 in 10.0 mi North 8.1 mph 17.3 mph N/A   Partly Cloudy
3:53 PM 91.9 °F - 48.9 °F 23% 29.91 in 10.0 mi NNW 11.5 mph 20.7 mph N/A   Partly Cloudy
4:53 PM 93.9 °F - 46.9 °F 20% 29.89 in 10.0 mi NNW 9.2 mph 20.7 mph N/A   Scattered Clouds
5:53 PM 91.0 °F - 45.0 °F 20% 29.88 in 10.0 mi North 9.2 mph - N/A   Partly Cloudy
6:53 PM 90.0 °F - 45.0 °F 21% 29.87 in 10.0 mi North 10.4 mph - N/A   Clear
7:53 PM 88.0 °F - 46.0 °F 23% 29.89 in 10.0 mi NE 12.7 mph - N/A   Mostly Cloudy
8:53 PM 82.0 °F - 46.0 °F 28% 29.93 in 10.0 mi NE 9.2 mph - N/A   Mostly Cloudy
9:53 PM 73.9 °F - 51.1 °F 45% 29.96 in 10.0 mi ESE 6.9 mph - N/A   Clear
10:53 PM 72.0 °F - 54.0 °F 53% 29.97 in 10.0 mi Calm Calm - N/A   Clear
11:53 PM 72.0 °F - 54.0 °F 53% 29.97 in 10.0 mi ESE 9.2 mph - N/A   Clear